Simultaneous Nadir Overpasses (SNOs) Predictions

Prediction of SNOs between AQUA and METOP-B Satellite Orbit:

Table of predicted SNOs for the next 14.0 days since TLE Epoch: 12/17/2016
Index Date (AQUA) Time (AQUA) Lat,Lon (AQUA) SZA (AQUA ) Date (METOP-B) Time (METOP-B) Lat,Lon (METOP-B) SZA (METOP-B ) Distance(km) Time Diff (sec)
1 12/17/2016 23:38:40 -73.63, -0.15 83.03 12/17/2016 23:37:37 -73.63, -0.25 83.02 3.24 63
2 12/18/2016 00:28:09 73.73, 167.29 97.08 12/18/2016 00:28:15 73.70, 167.25 97.05 3.05 6
3 12/18/2016 01:17:40 -73.99, -25.66 82.65 12/18/2016 01:18:51 -74.01, -24.69 82.66 29.61 71
4 12/20/2016 19:12:56 -73.67, 66.22 82.94 12/20/2016 19:11:58 -73.68, 66.28 82.92 2.40 58
5 12/20/2016 20:02:24 73.71,-126.24 97.11 12/20/2016 20:02:37 73.70,-126.35 97.10 3.65 13
6 12/20/2016 20:52:00 -74.23, 40.23 82.34 12/20/2016 20:53:08 -74.25, 42.33 82.37 63.51 68
7 12/23/2016 14:47:12 -73.66, 132.67 82.96 12/23/2016 14:46:21 -73.68, 132.68 82.93 2.38 51
8 12/23/2016 15:36:41 73.75, -59.90 97.15 12/23/2016 15:36:59 73.74, -59.84 97.13 2.53 18
9 12/23/2016 16:26:21 -74.48, 106.08 82.09 12/23/2016 16:27:26 -74.49, 109.36 82.15 97.70 65
10 12/26/2016 10:21:28 -73.65,-160.89 83.03 12/26/2016 10:20:44 -73.67,-160.93 83.00 2.43 44
11 12/26/2016 11:10:57 73.75, 6.54 97.08 12/26/2016 11:11:22 73.73, 6.55 97.06 2.37 25
12 12/29/2016 05:55:43 -73.66, -94.46 83.16 12/29/2016 05:55:06 -73.67, -94.54 83.14 2.44 37
13 12/29/2016 06:45:12 73.76, 72.96 96.95 12/29/2016 06:45:43 73.77, 73.05 96.96 3.28 31




NCC Satellite Simultaneous Nadir Overpasses (SNOs) Prediction Service
